Location: Devargunta
(16.7631°N, 80.9077°E)
Time: 13:43:48
(UTC+00:00)

Cosmos 540 Rocket - Visible Passes

Search period start: 04 October 2022 00:00
Search period end: 14 October 2022 00:00
Orbit: 740 x 752 km, 74.1° (Epoch: 03 October)

Date Brightness Start Highest point End Pass type
(mag) Time Alt. Az. Time Alt. Az. Time Alt. Az.
04 Oct 3.3 13:05:32 10° N 13:10:37 72° ENE 13:15:42 10° SSE visible
05 Oct 6.3 14:05:07 10° WNW 14:08:17 17° W 14:11:29 10° SW visible
06 Oct 4.9 13:20:10 10° NNW 13:24:55 40° W 13:29:40 10° S visible
07 Oct 3.4 12:36:22 10° N 12:41:27 82° ENE 12:46:34 10° SSE visible
08 Oct 6.6 13:36:21 10° WNW 13:39:06 15° W 13:41:52 10° SW visible
09 Oct 5.3 12:51:08 10° NW 12:55:44 35° W 13:00:22 10° SSW visible
09 Oct 6.7 23:49:47 10° SE 23:52:49 16° E 23:55:51 10° ENE visible
11 Oct 6.9 13:07:43 10° WNW 13:09:55 13° W 13:12:07 10° SW visible
12 Oct 4.9 00:02:11 10° S 00:07:02 43° E 00:11:51 10° NNE visible
12 Oct 6.5 23:20:13 10° SE 23:23:38 18° E 23:27:02 10° ENE visible
